{"data":{"norad_id":58076,"epoch":"2026-09-20T22:03:57.906144Z","epoch_age_seconds":101640,"freshness":"FRESH","line1":"1 58076U 23160B   26263.91942021 -.00000995  00000+0 -26647-4 0  9998","line2":"2 58076  43.0009  55.3300 0000819 253.3854 106.6907 15.27568104162803","mean_motion":15.27568104,"eccentricity":8.19e-5,"inclination_deg":43.0009,"raan_deg":55.33,"arg_perigee_deg":253.3854,"mean_anomaly_deg":106.6907,"bstar":-2.6647e-5,"rev_number":16280,"period_min":94.267482819869,"perigee_km":482.52278311575,"apogee_km":483.64665123302,"semimajor_km":6861.2217171744,"source":"CELESTRAK","updated_at":"2026-09-21T09:00:33.781479Z"}}